User: anonymous   Login
Location: Unspecified
(0.0000°N, 0.0000°E)
Time: 10:16:11
(UTC+00:00)
Language:

BRICSAT-P - Orbit

View from above orbital plane
View from above orbital plane
View from above satellite
View from above satellite

Ground track
Ground track

The orbit data is extracted from the following two-line orbital elements,

1 40655U 15025E   19308.84593714  .01177273  11630-4  49551-3 0  9715
2 40655  54.9504 101.1838 0008870  21.8665 339.4822 16.22237122135853
Epoch (UTC): 04 November 2019 20:18:08
Eccentricity: 0.0008870
inclination: 54.9504°
perigee height: 207 km
apogee height: 219 km
right ascension of ascending node: 101.1838°
argument of perigee: 21.8665°
revolutions per day: 16.22237122
mean anomaly at epoch: 339.4822°
orbit number at epoch: 13585

The dashed part of the orbit path shows where the satellite is in the earth's shadow,  

DLR